Bowling Green, KY

2:13 AM CDT on April 30, 2017 (GMT -0500)
Bowling Green-Warren County Regional

Weather History for KBWG - June, 2014

Change the Weather History Date:

Tuesday, June 17, 2014

  Actual Average Record
Temperature  
Mean Temperature 80 °F 76 °F  
Max Temperature 92 °F 87 °F 101 °F (1936)
Min Temperature 67 °F 65 °F 45 °F (1917)
Degree Days  
Heating Degree Days 0 0  
Month to date heating degree days 0 3  
Since 1 June heating degree days 0 3  
Since 1 July heating degree days 4533 4046  
Cooling Degree Days 15 11  
Month to date cooling degree days 150 148  
Year to date cooling degree days 347 301  
Since 1 June cooling degree days 150 148  
Growing Degree Days 30 (Base 50)    
Moisture  
Dew Point 67 °F    
Average Humidity 66    
Maximum Humidity 87    
Minimum Humidity 44    
Precipitation  
Precipitation 0.00 in 0.14 in 1.43 in (1912)
Month to date precipitation 1.31 2.46  
Year to date precipitation 21.89 24.39  
Snow  
Snow 0.00 in 0.00 in 0.00 in ()
Month to date snowfall 0.0 0.0  
Since 1 June snowfall 0.0 0.0  
Since 1 July snowfall 10.4 9.1  
Snow Depth 0.00 in    
Sea Level Pressure  
Sea Level Pressure 30.08 in    
Wind  
Wind Speed 8 mph (SW)    
Max Wind Speed 18 mph    
Max Gust Speed 23 mph    
Visibility 10 miles    
Events      
T = Trace of Precipitation, MM = Missing Value Source: NWS Daily Summary

Daily Weather History Graph

Daily Weather History Graph

Search for Another Location

Airport or City:

Trip Planner

Search our weather history database for the weather conditions in past years. The results will help you decide how hot, cold, wet, or windy it might be!

Date:

Astronomy

Jun. 17, 2014 Rise Set
Actual Time 5:25 AM CDT 8:07 PM CDT
Civil Twilight 4:54 AM CDT 8:38 PM CDT
Nautical Twilight 4:16 AM CDT 9:16 PM CDT
Astronomical Twilight 3:33 AM CDT 10:00 PM CDT
Moon 11:43 PM CDT (6/17) 10:33 AM CDT (6/17)
Length of Visible Light 15h 43m
Length of Day
14h 41m
Waning Gibbous, 73% of the Moon is Illuminated
Jun 17
Waning Gibbous
Jun 19
Last Quarter
Jun 27
New
Jul 5
First Quarter
Jul 12
Full

Hourly Weather History & Observations

Time (CDT) Temp. Heat Index Dew Point Humidity Pressure Visibility Wind Dir Wind Speed Gust Speed Precip Events Conditions
12:53 AM 75.0 °F - 64.9 °F 71% 30.06 in 10.0 mi South 4.6 mph - N/A   Clear
1:53 AM 73.9 °F - 64.0 °F 71% 30.06 in 10.0 mi South 3.5 mph - N/A   Clear
2:53 AM 70.0 °F - 63.0 °F 78% 30.05 in 10.0 mi SSW 5.8 mph - N/A   Clear
3:53 AM 68.0 °F - 63.0 °F 84% 30.07 in 10.0 mi Calm Calm - N/A   Clear
4:53 AM 69.1 °F - 64.0 °F 84% 30.09 in 10.0 mi Calm Calm - N/A   Partly Cloudy
5:53 AM 68.0 °F - 64.0 °F 87% 30.12 in 9.0 mi Calm Calm - N/A   Clear
6:53 AM 73.9 °F - 66.0 °F 76% 30.13 in 10.0 mi South 8.1 mph - N/A   Clear
7:53 AM 79.0 °F - 68.0 °F 69% 30.13 in 10.0 mi SSW 10.4 mph - N/A   Clear
8:53 AM 82.9 °F 87.0 °F 70.0 °F 65% 30.14 in 10.0 mi SW 11.5 mph - N/A   Clear
9:53 AM 86.0 °F 90.7 °F 70.0 °F 59% 30.14 in 10.0 mi SW 12.7 mph 20.7 mph N/A   Partly Cloudy
10:53 AM 87.1 °F 91.3 °F 69.1 °F 55% 30.12 in 10.0 mi WSW 11.5 mph 20.7 mph N/A   Mostly Cloudy
11:53 AM 89.1 °F 92.1 °F 66.9 °F 48% 30.11 in 10.0 mi WSW 11.5 mph - N/A   Scattered Clouds
12:53 PM 87.1 °F 90.6 °F 68.0 °F 53% 30.10 in 10.0 mi WSW 10.4 mph - N/A   Scattered Clouds
1:53 PM 91.9 °F 95.9 °F 68.0 °F 45% 30.07 in 10.0 mi SSW 15.0 mph - N/A   Clear
2:53 PM 91.9 °F 95.4 °F 66.9 °F 44% 30.06 in 10.0 mi SSW 13.8 mph 21.9 mph N/A   Partly Cloudy
3:53 PM 91.0 °F 94.3 °F 66.9 °F 45% 30.05 in 10.0 mi SW 11.5 mph - N/A   Partly Cloudy
4:53 PM 91.0 °F 94.3 °F 66.9 °F 45% 30.04 in 10.0 mi SW 12.7 mph 18.4 mph N/A   Partly Cloudy
5:53 PM 90.0 °F 92.8 °F 66.9 °F 46% 30.04 in 10.0 mi WSW 9.2 mph - N/A   Scattered Clouds
6:53 PM 88.0 °F 90.7 °F 66.9 °F 49% 30.03 in 10.0 mi WSW 9.2 mph - N/A   Clear
7:53 PM 86.0 °F 88.8 °F 66.9 °F 53% 30.03 in 10.0 mi SW 8.1 mph - N/A   Clear
8:53 PM 84.0 °F 86.5 °F 66.9 °F 56% 30.04 in 10.0 mi SW 8.1 mph - N/A   Clear
9:53 PM 82.0 °F 84.9 °F 68.0 °F 62% 30.07 in 10.0 mi SSW 4.6 mph - N/A   Clear
10:53 PM 80.1 °F 82.7 °F 68.0 °F 67% 30.08 in 10.0 mi SSW 4.6 mph - N/A   Clear
11:53 PM 78.1 °F - 68.0 °F 71% 30.09 in 10.0 mi South 3.5 mph - N/A   Clear